User: anonymous   Login
Location: Unspecified
(0.0000°N, 0.0000°E)
Time: 09:05:39
(UTC+00:00)
Language:

OAO 1 - Orbit

View from above orbital plane
View from above orbital plane
View from above satellite
View from above satellite

Ground track
Ground track

The orbit data is extracted from the following two-line orbital elements,

1  2142U 66031A   19345.77554982 -.00000022 +00000-0 -94597-6 0  9990
2  2142 035.0472 006.3045 0007091 006.1255 353.9518 14.33887308809316
Epoch (UTC): 11 December 2019 18:36:47
Eccentricity: 0.0007091
inclination: 35.0472°
perigee height: 773 km
apogee height: 784 km
right ascension of ascending node: 6.3045°
argument of perigee: 6.1255°
revolutions per day: 14.33887308
mean anomaly at epoch: 353.9518°
orbit number at epoch: 80931

The dashed part of the orbit path shows where the satellite is in the earth's shadow,  

DLR